| time (UTC) | temp F | wind direction | speed MPH | gust MPH | rain 1hr in | rain 24hr in | rain mn in | humidity % | barometer mb |
| 20260901095049 | 73 | 0 | 0.0 | 2.0 | 0.00 | 0.56 | 0.00 | 72 | 1016.4 |
| 20260901094600 | 73 | 0 | 0.0 | 2.0 | 0.00 | 0.56 | 0.00 | 72 | 1016.4 |
| 20260901094049 | 73 | 157 | 0.0 | 3.0 | 0.00 | 0.56 | 0.00 | 72 | 1016.4 |
| 20260901093554 | 73 | 0 | 1.0 | 6.0 | 0.00 | 0.56 | 0.00 | 72 | 1016.3 |
| 20260901093057 | 73 | 157 | 2.0 | 6.0 | 0.00 | 0.56 | 0.00 | 72 | 1016.4 |
| 20260901092557 | 73 | 163 | 2.0 | 6.0 | 0.00 | 0.56 | 0.00 | 72 | 1016.4 |
| 20260901092053 | 74 | 153 | 1.0 | 5.0 | 0.00 | 0.56 | 0.00 | 72 | 1016.4 |
| 20260901091604 | 74 | 153 | 1.0 | 6.0 | 0.00 | 0.56 | 0.00 | 72 | 1016.4 |
| 20260901091054 | 74 | 153 | 2.0 | 6.0 | 0.00 | 0.56 | 0.00 | 72 | 1016.5 |
| 20260901090553 | 74 | 148 | 2.0 | 5.0 | 0.00 | 0.56 | 0.00 | 72 | 1016.5 |
| 20260901090104 | 74 | 148 | 1.0 | 5.0 | 0.00 | 0.56 | 0.00 | 72 | 1016.5 |
| 20260901085555 | 74 | 0 | 1.0 | 4.0 | 0.00 | 0.56 | 0.00 | 72 | 1016.5 |
| 20260901085053 | 73 | 139 | 1.0 | 4.0 | 0.00 | 0.56 | 0.00 | 73 | 1016.5 |
| 20260901084559 | 73 | 144 | 1.0 | 5.0 | 0.00 | 0.56 | 0.00 | 73 | 1016.5 |
| 20260901084054 | 73 | 145 | 2.0 | 5.0 | 0.00 | 0.56 | 0.00 | 73 | 1016.5 |
| 20260901083557 | 74 | 135 | 1.0 | 5.0 | 0.00 | 0.56 | 0.00 | 73 | 1016.5 |
| 20260901083056 | 74 | 135 | 2.0 | 7.0 | 0.00 | 0.56 | 0.00 | 73 | 1016.6 |
| 20260901082555 | 74 | 133 | 2.0 | 8.0 | 0.00 | 0.56 | 0.00 | 73 | 1016.5 |
| 20260901082053 | 74 | 133 | 2.0 | 8.0 | 0.00 | 0.56 | 0.00 | 73 | 1016.6 |
| 20260901081615 | 74 | 0 | 2.0 | 8.0 | 0.00 | 0.56 | 0.00 | 73 | 1016.6 |
| 20260901081052 | 74 | 148 | 2.0 | 6.0 | 0.00 | 0.56 | 0.00 | 73 | 1016.6 |
| 20260901080553 | 74 | 146 | 2.0 | 5.0 | 0.00 | 0.56 | 0.00 | 73 | 1016.6 |
| 20260901080100 | 74 | 140 | 1.0 | 5.0 | 0.00 | 0.56 | 0.00 | 73 | 1016.6 |
| 20260901075553 | 74 | 140 | 1.0 | 3.0 | 0.00 | 0.56 | 0.00 | 73 | 1016.6 |
| 20260901075052 | 74 | 140 | 1.0 | 3.0 | 0.00 | 0.56 | 0.00 | 73 | 1016.6 |
| 20260901074604 | 74 | 140 | 1.0 | 3.0 | 0.00 | 0.56 | 0.00 | 73 | 1016.7 |
| 20260901074055 | 74 | 0 | 0.0 | 3.0 | 0.00 | 0.56 | 0.00 | 73 | 1016.7 |
| 20260901073552 | 74 | 0 | 0.0 | 3.0 | 0.00 | 0.56 | 0.00 | 73 | 1016.7 |
| 20260901073106 | 74 | 140 | 0.0 | 5.0 | 0.00 | 0.56 | 0.00 | 71 | 1016.7 |
| 20260901072553 | 74 | 140 | 1.0 | 7.0 | 0.00 | 0.56 | 0.00 | 72 | 1016.7 |
| 20260901072057 | 74 | 139 | 2.0 | 7.0 | 0.00 | 0.56 | 0.00 | 72 | 1016.7 |
| 20260901071601 | 74 | 136 | 2.0 | 7.0 | 0.00 | 0.56 | 0.00 | 72 | 1016.7 |
| 20260901071055 | 74 | 136 | 3.0 | 7.0 | 0.00 | 0.56 | 0.00 | 72 | 1016.8 |
| 20260901070556 | 75 | 137 | 3.0 | 7.0 | 0.00 | 0.56 | 0.00 | 72 | 1016.7 |
| 20260901070110 | 74 | 139 | 2.0 | 7.0 | 0.00 | 0.56 | 0.00 | 72 | 1016.7 |
| 20260901065553 | 75 | 138 | 2.0 | 7.0 | 0.00 | 0.56 | 0.56 | 72 | 1016.7 |
| 20260901065053 | 74 | 133 | 3.0 | 7.0 | 0.00 | 0.56 | 0.56 | 72 | 1016.8 |
| 20260901064606 | 74 | 124 | 3.0 | 7.0 | 0.00 | 0.56 | 0.56 | 73 | 1016.8 |
| 20260901064053 | 74 | 123 | 2.0 | 6.0 | 0.00 | 0.56 | 0.56 | 74 | 1016.9 |
| 20260901063552 | 74 | 117 | 2.0 | 6.0 | 0.00 | 0.56 | 0.56 | 74 | 1017.0 |
| 20260901063125 | 74 | 119 | 1.0 | 6.0 | 0.00 | 0.56 | 0.56 | 75 | 1017.1 |
| 20260901062549 | 74 | 119 | 1.0 | 6.0 | 0.00 | 0.56 | 0.56 | 75 | 1016.9 |
| 20260901062052 | 74 | 121 | 2.0 | 5.0 | 0.00 | 0.56 | 0.56 | 76 | 1016.9 |
| 20260901061604 | 74 | 0 | 1.0 | 4.0 | 0.00 | 0.56 | 0.56 | 76 | 1017.0 |
| 20260901061049 | 74 | 119 | 1.0 | 8.0 | 0.00 | 0.56 | 0.56 | 77 | 1017.1 |
| 20260901060551 | 74 | 119 | 2.0 | 8.0 | 0.00 | 0.56 | 0.56 | 77 | 1016.9 |
| 20260901060114 | 74 | 111 | 1.0 | 6.0 | 0.00 | 0.56 | 0.56 | 77 | 1017.0 |
| 20260901055548 | 74 | 111 | 0.0 | 8.0 | 0.00 | 0.56 | 0.56 | 77 | 1017.2 |
| 20260901055052 | 75 | 111 | 1.0 | 8.0 | 0.00 | 0.56 | 0.56 | 76 | 1017.2 |
| 20260901054601 | 75 | 111 | 4.0 | 8.0 | 0.00 | 0.56 | 0.56 | 75 | 1017.1 |
| 20260901054052 | 74 | 116 | 3.0 | 7.0 | 0.00 | 0.56 | 0.56 | 77 | 1017.1 |
| 20260901053552 | 74 | 117 | 2.0 | 6.0 | 0.00 | 0.56 | 0.56 | 78 | 1017.0 |
| 20260901053118 | 74 | 118 | 1.0 | 4.0 | 0.00 | 0.56 | 0.56 | 78 | 1017.1 |
| 20260901052549 | 74 | 0 | 1.0 | 4.0 | 0.00 | 0.56 | 0.56 | 78 | 1017.0 |
| 20260901052049 | 74 | 0 | 0.0 | 4.0 | 0.00 | 0.56 | 0.56 | 78 | 1017.0 |
| 20260901051602 | 74 | 118 | 1.0 | 4.0 | 0.00 | 0.56 | 0.56 | 78 | 1016.9 |
| 20260901051050 | 74 | 0 | 0.0 | 2.0 | 0.00 | 0.56 | 0.56 | 78 | 1017.0 |
| 20260901050549 | 75 | 0 | 0.0 | 4.0 | 0.00 | 0.56 | 0.56 | 78 | 1017.0 |
| 20260901050106 | 75 | 0 | 0.0 | 7.0 | 0.00 | 0.56 | 0.56 | 77 | 1017.1 |
| 20260901045552 | 75 | 0 | 1.0 | 7.0 | 0.00 | 0.56 | 0.56 | 78 | 1017.2 |
| 20260901045056 | 75 | 118 | 2.0 | 6.0 | 0.00 | 0.56 | 0.56 | 78 | 1017.3 |
| 20260901044622 | 75 | 116 | 1.0 | 6.0 | 0.00 | 0.56 | 0.56 | 78 | 1017.2 |
| 20260901044051 | 75 | 116 | 1.0 | 6.0 | 0.00 | 0.56 | 0.56 | 77 | 1017.3 |
| 20260901043549 | 75 | 116 | 1.0 | 3.0 | 0.00 | 0.56 | 0.56 | 77 | 1017.2 |
| 20260901043113 | 75 | 0 | 0.0 | 7.0 | 0.00 | 0.56 | 0.56 | 76 | 1017.2 |
| 20260901042551 | 75 | 0 | 0.0 | 8.0 | 0.00 | 0.56 | 0.56 | 76 | 1017.1 |
| 20260901042049 | 75 | 122 | 3.0 | 8.0 | 0.00 | 0.56 | 0.56 | 75 | 1017.0 |
| 20260901041559 | 75 | 122 | 2.0 | 8.0 | 0.00 | 0.56 | 0.56 | 75 | 1016.8 |
| 20260901041053 | 75 | 136 | 0.0 | 3.0 | 0.00 | 0.56 | 0.56 | 76 | 1016.9 |
| 20260901040549 | 75 | 0 | 0.0 | 0.0 | 0.00 | 0.56 | 0.56 | 76 | 1016.9 |
| 20260901040057 | 75 | 0 | 0.0 | 0.0 | 0.00 | 0.56 | 0.56 | 76 | 1016.9 |
| 20260901035556 | 75 | 0 | 0.0 | 0.0 | 0.00 | 0.56 | 0.56 | 76 | 1017.0 |
| 20260901035051 | 75 | 0 | 0.0 | 0.0 | 0.00 | 0.56 | 0.56 | 75 | 1017.0 |
| 20260901034608 | 75 | 0 | 0.0 | 0.0 | 0.00 | 0.56 | 0.56 | 75 | 1017.0 |
| 20260901034051 | 75 | 0 | 0.0 | 0.0 | 0.00 | 0.56 | 0.56 | 75 | 1016.8 |
| 20260901033549 | 75 | 0 | 0.0 | 0.0 | 0.00 | 0.56 | 0.56 | 74 | 1016.8 |
| 20260901033100 | 75 | 0 | 0.0 | 0.0 | 0.00 | 0.56 | 0.56 | 75 | 1016.8 |
| 20260901032551 | 76 | 0 | 0.0 | 0.0 | 0.00 | 0.56 | 0.56 | 74 | 1016.7 |
| 20260901032101 | 76 | 0 | 0.0 | 0.0 | 0.00 | 0.56 | 0.56 | 75 | 1016.6 |
| 20260901031558 | 76 | 0 | 0.0 | 0.0 | 0.00 | 0.56 | 0.56 | 75 | 1016.6 |
| 20260901031053 | 76 | 0 | 0.0 | 0.0 | 0.00 | 0.56 | 0.56 | 74 | 1016.6 |
| 20260901030555 | 76 | 0 | 0.0 | 0.0 | 0.00 | 0.56 | 0.56 | 75 | 1016.4 |
| 20260901025552 | 76 | 0 | 0.0 | 3.0 | 0.00 | 0.56 | 0.56 | 74 | 1016.3 |
| 20260901025056 | 76 | 0 | 1.0 | 3.0 | 0.00 | 0.56 | 0.56 | 73 | 1016.3 |
| 20260901024605 | 76 | 136 | 0.0 | 2.0 | 0.00 | 0.56 | 0.56 | 74 | 1016.2 |
| 20260901024053 | 76 | 136 | 0.0 | 3.0 | 0.00 | 0.56 | 0.56 | 74 | 1016.1 |
| 20260901023553 | 76 | 0 | 1.0 | 3.0 | 0.00 | 0.56 | 0.56 | 75 | 1015.8 |
| 20260901023104 | 76 | 136 | 1.0 | 3.0 | 0.00 | 0.56 | 0.56 | 75 | 1015.7 |
| 20260901022552 | 76 | 0 | 0.0 | 3.0 | 0.00 | 0.56 | 0.56 | 75 | 1015.8 |
| 20260901022053 | 76 | 136 | 1.0 | 3.0 | 0.00 | 0.56 | 0.56 | 76 | 1015.6 |
| 20260901021633 | 76 | 0 | 0.0 | 0.0 | 0.00 | 0.56 | 0.56 | 75 | 1015.8 |
| 20260901021053 | 76 | 0 | 0.0 | 1.0 | 0.00 | 0.56 | 0.56 | 75 | 1015.8 |
| 20260901020552 | 76 | 0 | 0.0 | 3.0 | 0.00 | 0.56 | 0.56 | 74 | 1015.6 |
| 20260901020115 | 76 | 0 | 0.0 | 3.0 | 0.00 | 0.56 | 0.56 | 75 | 1015.3 |
| 20260901015552 | 76 | 136 | 0.0 | 2.0 | 0.00 | 0.56 | 0.56 | 74 | 1015.3 |
| 20260901015056 | 77 | 0 | 0.0 | 0.0 | 0.00 | 0.56 | 0.56 | 74 | 1015.4 |
| 20260901014602 | 77 | 0 | 0.0 | 0.0 | 0.00 | 0.56 | 0.56 | 73 | 1015.4 |
| 20260901014052 | 77 | 0 | 0.0 | 3.0 | 0.00 | 0.56 | 0.56 | 74 | 1015.3 |
| 20260901013552 | 77 | 0 | 0.0 | 3.0 | 0.00 | 0.56 | 0.56 | 73 | 1015.2 |
| 20260901013110 | 77 | 0 | 1.0 | 3.0 | 0.00 | 0.56 | 0.56 | 71 | 1015.1 |
| 20260901012556 | 77 | 0 | 1.0 | 3.0 | 0.00 | 0.56 | 0.56 | 72 | 1015.0 |
| 20260901012051 | 77 | 136 | 0.0 | 2.0 | 0.00 | 0.56 | 0.56 | 72 | 1014.8 |
| 20260901011602 | 77 | 0 | 0.0 | 4.0 | 0.00 | 0.56 | 0.56 | 71 | 1014.8 |
| 20260901011053 | 78 | 0 | 0.0 | 4.0 | 0.00 | 0.56 | 0.56 | 71 | 1014.9 |
| 20260901010552 | 78 | 136 | 2.0 | 4.0 | 0.00 | 0.56 | 0.56 | 70 | 1014.9 |
| 20260901010058 | 78 | 136 | 0.0 | 3.0 | 0.00 | 0.56 | 0.56 | 69 | 1014.9 |
| 20260901005551 | 78 | 0 | 0.0 | 2.0 | 0.00 | 0.56 | 0.56 | 69 | 1014.8 |
| 20260901005051 | 78 | 0 | 0.0 | 0.0 | 0.00 | 0.56 | 0.56 | 69 | 1014.8 |
| 20260901004608 | 78 | 0 | 0.0 | 2.0 | 0.00 | 0.56 | 0.56 | 70 | 1014.9 |
| 20260901004051 | 78 | 0 | 0.0 | 3.0 | 0.00 | 0.56 | 0.56 | 70 | 1014.9 |
| 20260901003551 | 78 | 136 | 0.0 | 3.0 | 0.00 | 0.56 | 0.56 | 69 | 1014.8 |
| 20260901003122 | 78 | 136 | 0.0 | 3.0 | 0.00 | 0.56 | 0.56 | 68 | 1014.9 |
| 20260901002551 | 78 | 136 | 1.0 | 4.0 | 0.00 | 0.56 | 0.56 | 69 | 1015.0 |
| 20260901002053 | 78 | 136 | 1.0 | 4.0 | 0.00 | 0.56 | 0.56 | 69 | 1015.1 |
| 20260901001609 | 78 | 136 | 1.0 | 4.0 | 0.00 | 0.56 | 0.56 | 68 | 1015.1 |
| 20260901001052 | 78 | 0 | 1.0 | 5.0 | 0.00 | 0.56 | 0.56 | 69 | 1015.1 |
| 20260901000552 | 78 | 136 | 1.0 | 9.0 | 0.00 | 0.56 | 0.56 | 68 | 1015.1 |
| 20260901000116 | 78 | 136 | 2.0 | 9.0 | 0.00 | 0.56 | 0.56 | 67 | 1015.0 |
| 20260831235555 | 78 | 134 | 1.0 | 7.0 | 0.00 | 0.56 | 0.56 | 66 | 1015.1 |
| 20260831235052 | 78 | 168 | 3.0 | 7.0 | 0.00 | 0.56 | 0.56 | 66 | 1015.2 |
| 20260831234620 | 78 | 146 | 2.0 | 5.0 | 0.00 | 0.56 | 0.56 | 66 | 1015.3 |
| 20260831234052 | 78 | 146 | 0.0 | 6.0 | 0.00 | 0.56 | 0.56 | 67 | 1015.2 |
| 20260831233554 | 78 | 0 | 1.0 | 6.0 | 0.00 | 0.56 | 0.56 | 68 | 1015.3 |
| 20260831233100 | 77 | 146 | 3.0 | 8.0 | 0.00 | 0.56 | 0.56 | 68 | 1015.4 |
| 20260831232551 | 77 | 108 | 3.0 | 9.0 | 0.00 | 0.56 | 0.56 | 68 | 1015.3 |
| 20260831232051 | 77 | 123 | 3.0 | 9.0 | 0.00 | 0.56 | 0.56 | 66 | 1015.4 |
| 20260831231605 | 77 | 112 | 4.0 | 9.0 | 0.00 | 0.56 | 0.56 | 67 | 1015.4 |
| 20260831231055 | 77 | 142 | 1.0 | 9.0 | 0.00 | 0.56 | 0.56 | 71 | 1015.4 |
| 20260831230552 | 77 | 74 | 3.0 | 9.0 | 0.00 | 0.56 | 0.56 | 71 | 1015.4 |
| 20260831230104 | 77 | 117 | 4.0 | 11.0 | 0.00 | 0.56 | 0.56 | 71 | 1015.3 |
| 20260831225552 | 77 | 144 | 3.0 | 11.0 | 0.00 | 0.56 | 0.56 | 73 | 1015.4 |
| 20260831225053 | 76 | 142 | 6.0 | 12.0 | 0.00 | 0.56 | 0.56 | 72 | 1015.5 |
| 20260831224602 | 77 | 130 | 5.0 | 12.0 | 0.00 | 0.56 | 0.56 | 72 | 1015.6 |
| 20260831224054 | 76 | 126 | 5.0 | 14.0 | 0.00 | 0.56 | 0.56 | 74 | 1015.7 |
| 20260831223551 | 76 | 127 | 6.0 | 14.0 | 0.00 | 0.56 | 0.56 | 76 | 1015.8 |
| 20260831223104 | 76 | 126 | 6.0 | 12.0 | 0.00 | 0.56 | 0.56 | 75 | 1015.9 |
| 20260831222551 | 76 | 121 | 6.0 | 12.0 | 0.00 | 0.56 | 0.56 | 75 | 1015.9 |
| 20260831222055 | 76 | 109 | 5.0 | 11.0 | 0.00 | 0.56 | 0.56 | 76 | 1016.0 |
| 20260831221604 | 75 | 111 | 6.0 | 11.0 | 0.00 | 0.56 | 0.56 | 75 | 1016.1 |
| 20260831221053 | 76 | 115 | 4.0 | 12.0 | 0.00 | 0.56 | 0.56 | 74 | 1016.2 |
| 20260831220551 | 76 | 134 | 4.0 | 14.0 | 0.00 | 0.56 | 0.56 | 76 | 1016.3 |
| 20260831220116 | 75 | 93 | 6.0 | 14.0 | 0.00 | 0.56 | 0.56 | 75 | 1016.4 |
| 20260831215554 | 75 | 109 | 5.0 | 14.0 | 0.00 | 0.56 | 0.56 | 77 | 1016.5 |
| 20260831215057 | 75 | 126 | 6.0 | 14.0 | 0.00 | 0.56 | 0.56 | 76 | 1016.6 |
| 20260831214603 | 74 | 159 | 5.0 | 11.0 | 0.00 | 0.56 | 0.56 | 79 | 1016.7 |
| 20260831214054 | 73 | 128 | 4.0 | 12.0 | 0.00 | 0.56 | 0.56 | 81 | 1016.8 |
| 20260831213552 | 73 | 137 | 4.0 | 12.0 | 0.00 | 0.56 | 0.56 | 83 | 1017.0 |
| 20260831213101 | 72 | 142 | 4.0 | 9.0 | 0.00 | 0.56 | 0.56 | 84 | 1017.1 |
| 20260831212555 | 72 | 134 | 4.0 | 9.0 | 0.00 | 0.56 | 0.56 | 88 | 1017.3 |
| 20260831212055 | 70 | 123 | 3.0 | 9.0 | 0.00 | 0.56 | 0.56 | 89 | 1017.4 |
| 20260831211612 | 70 | 143 | 1.0 | 10.0 | 0.01 | 0.56 | 0.56 | 90 | 1017.5 |
| 20260831211051 | 69 | 138 | 2.0 | 10.0 | 0.02 | 0.56 | 0.56 | 89 | 1017.8 |
| 20260831210555 | 69 | 114 | 3.0 | 10.0 | 0.04 | 0.56 | 0.56 | 90 | 1017.8 |
| 20260831205551 | 68 | 136 | 3.0 | 8.0 | 0.04 | 0.56 | 0.56 | 90 | 1018.3 |
| 20260831205052 | 68 | 140 | 4.0 | 8.0 | 0.04 | 0.56 | 0.56 | 90 | 1018.4 |
| 20260831204601 | 68 | 140 | 2.0 | 8.0 | 0.05 | 0.56 | 0.56 | 90 | 1018.6 |
| 20260831204052 | 68 | 130 | 3.0 | 10.0 | 0.05 | 0.56 | 0.56 | 90 | 1018.6 |
| 20260831203549 | 68 | 139 | 4.0 | 11.0 | 0.06 | 0.56 | 0.56 | 90 | 1018.6 |
| 20260831203102 | 68 | 111 | 5.0 | 12.0 | 0.06 | 0.56 | 0.56 | 90 | 1018.7 |
| 20260831202551 | 68 | 107 | 4.0 | 12.0 | 0.08 | 0.56 | 0.56 | 89 | 1019.0 |
| 20260831202051 | 68 | 108 | 3.0 | 12.0 | 0.08 | 0.56 | 0.56 | 89 | 1019.3 |
| 20260831201606 | 68 | 142 | 4.0 | 9.0 | 0.09 | 0.55 | 0.55 | 89 | 1019.4 |
| 20260831201056 | 68 | 0 | 2.0 | 8.0 | 0.08 | 0.54 | 0.54 | 89 | 1019.5 |
| 20260831200552 | 68 | 137 | 3.0 | 8.0 | 0.07 | 0.52 | 0.52 | 89 | 1019.6 |
| 20260831200103 | 68 | 0 | 2.0 | 7.0 | 0.07 | 0.52 | 0.52 | 89 | 1019.7 |
| 20260831195554 | 68 | 136 | 3.0 | 7.0 | 0.08 | 0.52 | 0.52 | 89 | 1019.7 |
| 20260831195053 | 68 | 113 | 2.0 | 6.0 | 0.10 | 0.52 | 0.52 | 89 | 1019.6 |
| 20260831194633 | 68 | 132 | 1.0 | 5.0 | 0.09 | 0.51 | 0.51 | 90 | 1019.8 |
| 20260831194053 | 68 | 0 | 2.0 | 5.0 | 0.10 | 0.51 | 0.51 | 90 | 1020.0 |
| 20260831193555 | 68 | 0 | 0.0 | 4.0 | 0.10 | 0.50 | 0.50 | 90 | 1020.1 |
| 20260831193059 | 68 | 0 | 0.0 | 4.0 | 0.10 | 0.49 | 0.49 | 90 | 1020.3 |
| 20260831192551 | 68 | 233 | 0.0 | 5.0 | 0.10 | 0.48 | 0.48 | 90 | 1020.4 |
| 20260831192053 | 68 | 234 | 0.0 | 5.0 | 0.10 | 0.48 | 0.48 | 90 | 1020.4 |
| 20260831191605 | 68 | 233 | 2.0 | 5.0 | 0.08 | 0.46 | 0.46 | 90 | 1020.6 |
| 20260831191055 | 68 | 238 | 0.0 | 1.0 | 0.08 | 0.46 | 0.46 | 90 | 1020.4 |
| 20260831190549 | 67 | 0 | 0.0 | 2.0 | 0.08 | 0.45 | 0.45 | 89 | 1020.3 |
| 20260831190120 | 67 | 0 | 0.0 | 2.0 | 0.09 | 0.45 | 0.45 | 89 | 1020.7 |
| 20260831185552 | 67 | 0 | 0.0 | 1.0 | 0.11 | 0.44 | 0.44 | 89 | 1020.8 |
| 20260831185051 | 67 | 0 | 0.0 | 1.0 | 0.12 | 0.42 | 0.42 | 89 | 1020.9 |
| 20260831184631 | 68 | 0 | 0.0 | 1.0 | 0.15 | 0.42 | 0.42 | 89 | 1021.0 |
| 20260831184053 | 68 | 0 | 0.0 | 2.0 | 0.15 | 0.41 | 0.41 | 90 | 1020.9 |
| 20260831183551 | 68 | 0 | 0.0 | 2.0 | 0.14 | 0.40 | 0.40 | 89 | 1020.9 |
| 20260831183107 | 68 | 0 | 0.0 | 2.0 | 0.13 | 0.39 | 0.39 | 89 | 1020.7 |
| 20260831182551 | 68 | 0 | 0.0 | 3.0 | 0.13 | 0.38 | 0.38 | 89 | 1020.6 |
| 20260831182051 | 68 | 0 | 0.0 | 3.0 | 0.17 | 0.38 | 0.38 | 89 | 1020.4 |
| 20260831181556 | 68 | 0 | 0.0 | 3.0 | 0.19 | 0.38 | 0.38 | 89 | 1020.9 |
| 20260831181048 | 68 | 0 | 0.0 | 3.0 | 0.19 | 0.38 | 0.38 | 89 | 1021.0 |
| 20260831180551 | 68 | 0 | 1.0 | 5.0 | 0.18 | 0.37 | 0.37 | 88 | 1021.0 |
| 20260831180103 | 68 | 0 | 0.0 | 8.0 | 0.16 | 0.35 | 0.35 | 88 | 1021.0 |
| 20260831175553 | 68 | 0 | 2.0 | 10.0 | 0.14 | 0.33 | 0.33 | 87 | 1021.0 |
| 20260831175051 | 68 | 266 | 3.0 | 10.0 | 0.11 | 0.30 | 0.30 | 86 | 1020.9 |
| 20260831174611 | 69 | 271 | 4.0 | 9.0 | 0.07 | 0.26 | 0.26 | 86 | 1020.8 |
| 20260831174048 | 69 | 300 | 4.0 | 9.0 | 0.08 | 0.26 | 0.26 | 85 | 1020.6 |
| 20260831173551 | 69 | 279 | 4.0 | 9.0 | 0.08 | 0.26 | 0.26 | 83 | 1020.7 |
| 20260831173105 | 70 | 275 | 4.0 | 12.0 | 0.08 | 0.26 | 0.26 | 81 | 1020.5 |
| 20260831172550 | 71 | 0 | 1.0 | 13.0 | 0.07 | 0.25 | 0.25 | 80 | 1020.5 |
| 20260831172051 | 72 | 283 | 5.0 | 13.0 | 0.03 | 0.21 | 0.21 | 77 | 1020.5 |
| 20260831171603 | 72 | 269 | 5.0 | 12.0 | 0.01 | 0.19 | 0.19 | 77 | 1020.1 |
| 20260831171049 | 72 | 258 | 5.0 | 12.0 | 0.01 | 0.19 | 0.19 | 78 | 1020.1 |
| 20260831170555 | 72 | 278 | 4.0 | 11.0 | 0.01 | 0.19 | 0.19 | 78 | 1020.0 |
| 20260831165555 | 73 | 263 | 4.0 | 9.0 | 0.01 | 0.19 | 0.19 | 80 | 1019.9 |
| 20260831165051 | 73 | 259 | 2.0 | 8.0 | 0.01 | 0.19 | 0.19 | 79 | 1019.7 |
| 20260831164601 | 74 | 261 | 3.0 | 9.0 | 0.01 | 0.19 | 0.19 | 77 | 1019.6 |
| 20260831164054 | 74 | 289 | 3.0 | 9.0 | 0.00 | 0.18 | 0.18 | 77 | 1019.5 |
| 20260831163551 | 75 | 267 | 3.0 | 7.0 | 0.00 | 0.18 | 0.18 | 76 | 1019.4 |
| 20260831163103 | 75 | 265 | 3.0 | 7.0 | 0.00 | 0.18 | 0.18 | 76 | 1019.5 |
| 20260831162552 | 75 | 267 | 1.0 | 5.0 | 0.00 | 0.18 | 0.18 | 75 | 1019.3 |
| 20260831162052 | 75 | 331 | 0.0 | 6.0 | 0.00 | 0.18 | 0.18 | 75 | 1019.0 |
| 20260831161605 | 75 | 290 | 0.0 | 6.0 | 0.00 | 0.18 | 0.18 | 76 | 1018.8 |
| 20260831161056 | 75 | 335 | 2.0 | 6.0 | 0.00 | 0.18 | 0.18 | 76 | 1018.7 |
| 20260831160551 | 76 | 319 | 2.0 | 6.0 | 0.00 | 0.18 | 0.18 | 78 | 1018.5 |
| 20260831160109 | 75 | 337 | 2.0 | 5.0 | 0.00 | 0.18 | 0.18 | 78 | 1018.4 |
| 20260831155552 | 75 | 324 | 0.0 | 0.0 | 0.00 | 0.18 | 0.18 | 80 | 1018.5 |
| 20260831155054 | 75 | 0 | 0.0 | 4.0 | 0.00 | 0.18 | 0.18 | 80 | 1018.2 |
| 20260831154628 | 75 | 0 | 0.0 | 5.0 | 0.00 | 0.18 | 0.18 | 81 | 1018.1 |
| 20260831154051 | 75 | 325 | 1.0 | 7.0 | 0.00 | 0.18 | 0.18 | 80 | 1018.1 |
| 20260831153551 | 75 | 0 | 2.0 | 7.0 | 0.00 | 0.18 | 0.18 | 82 | 1018.0 |
| 20260831153102 | 74 | 5 | 2.0 | 7.0 | 0.00 | 0.18 | 0.18 | 80 | 1017.9 |
| 20260831152551 | 74 | 0 | 2.0 | 7.0 | 0.00 | 0.18 | 0.18 | 82 | 1017.8 |
| 20260831152048 | 74 | 338 | 1.0 | 6.0 | 0.00 | 0.18 | 0.18 | 81 | 1017.9 |
| 20260831151605 | 74 | 340 | 1.0 | 5.0 | 0.00 | 0.18 | 0.18 | 83 | 1017.8 |
| 20260831151052 | 73 | 0 | 0.0 | 0.0 | 0.00 | 0.18 | 0.18 | 84 | 1017.7 |
| 20260831150550 | 73 | 0 | 0.0 | 0.0 | 0.00 | 0.18 | 0.18 | 84 | 1017.6 |
| 20260831150054 | 73 | 0 | 0.0 | 0.0 | 0.00 | 0.18 | 0.18 | 84 | 1017.4 |
| 20260831145551 | 72 | 0 | 0.0 | 0.0 | 0.00 | 0.18 | 0.18 | 84 | 1017.4 |
| 20260831145052 | 72 | 0 | 0.0 | 0.0 | 0.00 | 0.18 | 0.18 | 84 | 1017.3 |
| 20260831144630 | 72 | 0 | 0.0 | 0.0 | 0.00 | 0.18 | 0.18 | 85 | 1017.3 |
| 20260831144051 | 72 | 0 | 0.0 | 0.0 | 0.01 | 0.18 | 0.18 | 85 | 1017.2 |
| 20260831143548 | 72 | 0 | 0.0 | 2.0 | 0.01 | 0.18 | 0.18 | 84 | 1017.1 |
| 20260831143101 | 72 | 0 | 0.0 | 4.0 | 0.02 | 0.18 | 0.18 | 84 | 1017.2 |
| 20260831142552 | 71 | 0 | 0.0 | 6.0 | 0.02 | 0.18 | 0.18 | 83 | 1017.2 |
| 20260831142051 | 71 | 306 | 2.0 | 12.0 | 0.02 | 0.18 | 0.18 | 82 | 1017.2 |
| 20260831141601 | 71 | 239 | 1.0 | 12.0 | 0.02 | 0.18 | 0.18 | 82 | 1017.2 |
| 20260831141051 | 70 | 229 | 5.0 | 11.0 | 0.03 | 0.18 | 0.18 | 83 | 1017.1 |
| 20260831140555 | 70 | 242 | 3.0 | 9.0 | 0.03 | 0.18 | 0.18 | 86 | 1017.0 |
| 20260831140107 | 70 | 231 | 3.0 | 9.0 | 0.03 | 0.18 | 0.18 | 87 | 1017.0 |
| 20260831135551 | 69 | 229 | 4.0 | 8.0 | 0.03 | 0.18 | 0.18 | 87 | 1017.2 |
| 20260831135051 | 69 | 250 | 3.0 | 8.0 | 0.04 | 0.18 | 0.18 | 88 | 1017.3 |
| 20260831134606 | 69 | 248 | 2.0 | 8.0 | 0.04 | 0.18 | 0.18 | 88 | 1017.3 |
| 20260831134051 | 69 | 257 | 3.0 | 14.0 | 0.03 | 0.17 | 0.17 | 88 | 1017.1 |
| 20260831133551 | 69 | 252 | 4.0 | 14.0 | 0.03 | 0.17 | 0.17 | 88 | 1017.1 |
| 20260831133103 | 69 | 244 | 6.0 | 12.0 | 0.02 | 0.16 | 0.16 | 88 | 1017.4 |
| 20260831132551 | 69 | 252 | 6.0 | 10.0 | 0.02 | 0.16 | 0.16 | 88 | 1017.3 |
| 20260831132051 | 69 | 235 | 2.0 | 9.0 | 0.02 | 0.16 | 0.16 | 89 | 1017.3 |
| 20260831131600 | 69 | 239 | 2.0 | 9.0 | 0.02 | 0.16 | 0.16 | 89 | 1017.4 |
| 20260831131050 | 68 | 244 | 3.0 | 8.0 | 0.01 | 0.15 | 0.15 | 88 | 1017.2 |
| 20260831130550 | 68 | 279 | 0.0 | 6.0 | 0.02 | 0.15 | 0.15 | 88 | 1017.6 |
| 20260831130116 | 68 | 33 | 0.0 | 6.0 | 0.09 | 0.15 | 0.15 | 88 | 1017.7 |
| 20260831125555 | 68 | 43 | 1.0 | 6.0 | 0.15 | 0.15 | 0.15 | 87 | 1018.0 |
| 20260831125050 | 68 | 0 | 1.0 | 4.0 | 0.14 | 0.14 | 0.14 | 87 | 1018.3 |
| 20260831124604 | 69 | 0 | 0.0 | 4.0 | 0.14 | 0.14 | 0.14 | 88 | 1018.2 |
| 20260831124051 | 69 | 298 | 0.0 | 8.0 | 0.14 | 0.14 | 0.14 | 87 | 1018.0 |
| 20260831123554 | 69 | 0 | 1.0 | 8.0 | 0.14 | 0.14 | 0.14 | 87 | 1017.7 |
| 20260831123103 | 69 | 317 | 3.0 | 8.0 | 0.14 | 0.14 | 0.14 | 86 | 1017.8 |
| 20260831122551 | 69 | 0 | 1.0 | 11.0 | 0.14 | 0.14 | 0.14 | 86 | 1017.8 |
| 20260831122051 | 69 | 327 | 2.0 | 12.0 | 0.14 | 0.14 | 0.14 | 85 | 1017.7 |
| 20260831121556 | 70 | 285 | 5.0 | 14.0 | 0.14 | 0.14 | 0.14 | 83 | 1017.3 |
| 20260831121054 | 71 | 271 | 4.0 | 14.0 | 0.14 | 0.14 | 0.14 | 81 | 1017.1 |
| 20260831120553 | 72 | 338 | 7.0 | 13.0 | 0.13 | 0.13 | 0.13 | 78 | 1017.2 |
| 20260831120108 | 74 | 275 | 1.0 | 8.0 | 0.05 | 0.05 | 0.05 | 73 | 1017.5 |
| 20260831115550 | 74 | 0 | 0.0 | 11.0 | 0.00 | 0.00 | 0.00 | 71 | 1017.2 |
| 20260831115051 | 74 | 265 | 3.0 | 12.0 | 0.00 | 0.00 | 0.00 | 70 | 1016.8 |
| 20260831114605 | 74 | 360 | 6.0 | 16.0 | 0.00 | 0.00 | 0.00 | 69 | 1016.6 |
| 20260831114050 | 74 | 360 | 7.0 | 18.0 | 0.00 | 0.00 | 0.00 | 68 | 1016.7 |
| 20260831113551 | 74 | 360 | 10.0 | 20.0 | 0.00 | 0.00 | 0.00 | 70 | 1016.7 |
| 20260831113105 | 73 | 360 | 11.0 | 20.0 | 0.00 | 0.00 | 0.00 | 72 | 1016.4 |
| 20260831112551 | 73 | 360 | 9.0 | 22.0 | 0.00 | 0.00 | 0.00 | 73 | 1016.5 |
| 20260831112050 | 73 | 360 | 10.0 | 25.0 | 0.00 | 0.00 | 0.00 | 73 | 1016.4 |
| 20260831111611 | 73 | 360 | 11.0 | 25.0 | 0.00 | 0.00 | 0.00 | 72 | 1016.3 |
| 20260831111049 | 74 | 360 | 12.0 | 24.0 | 0.00 | 0.00 | 0.00 | 71 | 1016.3 |
| 20260831110554 | 75 | 360 | 13.0 | 27.0 | 0.00 | 0.00 | 0.00 | 67 | 1015.9 |
| 20260831110150 | 78 | 360 | 8.0 | 27.0 | 0.00 | 0.00 | 0.00 | 63 | 1015.8 |
| 20260831105555 | 80 | 360 | 11.0 | 25.0 | 0.00 | 0.00 | 0.00 | 58 | 1015.9 |
| 20260831105051 | 81 | 360 | 3.0 | 9.0 | 0.00 | 0.00 | 0.00 | 52 | 1015.5 |
| 20260831104600 | 80 | 360 | 1.0 | 3.0 | 0.00 | 0.00 | 0.00 | 53 | 1014.9 |
| 20260831104053 | 80 | 0 | 0.0 | 4.0 | 0.00 | 0.00 | 0.00 | 53 | 1014.7 |
| 20260831103552 | 80 | 0 | 0.0 | 4.0 | 0.00 | 0.00 | 0.00 | 53 | 1014.5 |
| 20260831103059 | 80 | 360 | 0.0 | 0.0 | 0.00 | 0.00 | 0.00 | 53 | 1014.5 |
| 20260831102551 | 80 | 0 | 0.0 | 0.0 | 0.00 | 0.00 | 0.00 | 53 | 1014.4 |
| 20260831102052 | 80 | 0 | 0.0 | 0.0 | 0.00 | 0.00 | 0.00 | 53 | 1014.2 |
| 20260831101605 | 80 | 0 | 0.0 | 2.0 | 0.00 | 0.00 | 0.00 | 53 | 1014.3 |
| 20260831101052 | 80 | 0 | 0.0 | 2.0 | 0.00 | 0.00 | 0.00 | 53 | 1014.3 |
| 20260831100551 | 80 | 360 | 0.0 | 2.0 | 0.00 | 0.00 | 0.00 | 54 | 1014.3 |
| 20260831100112 | 80 | 360 | 0.0 | 3.0 | 0.00 | 0.00 | 0.00 | 54 | 1014.4 |
| 20260831095551 | 80 | 0 | 0.0 | 3.0 | 0.00 | 0.00 | 0.00 | 54 | 1014.3 |